This demonstration page uses our WeatherBlox Daily Observations layout. Learn more.

Left ArrowRight Arrow

41.86663, -103.66717

Hourly Observations for June 13, 2022

Temp ( °F °C ) Dew Point ( °F °C ) Humidity (%) Winds ( mph kmh ) Pressure ( in mb ) Visibility ( mi km ) Precip ( " mm )
12:53 am 00:53 Clear 73 22.8 57 13.9 57 57 VRB 3 6 29.40 996 10 16 0.00 0.00
1:53 am 01:53 Clear 79 26.1 48 8.9 34 34 SE 10 17 29.38 995 10 16 0.00 0.00
2:53 am 02:53 Clear 76 24.4 48 8.9 37 37 E 5 7 29.38 995 10 16 0.00 0.00
3:53 am 03:53 Clear 68 20 49 9.4 51 51 E 7 11 29.41 996 10 16 0.00 0.00
4:53 am 04:53 Clear 63 17.2 49 9.4 60 60 Calm 29.41 996 10 16 0.00 0.00
5:53 am 05:53 Sunny 60 15.6 51 10.6 72 72 WNW 10 17 29.47 998 10 16 0.00 0.00
6:53 am 06:53 Sunny 62 16.7 54 12.2 75 75 WNW 9 15 29.48 998 10 16 0.00 0.00
7:53 am 07:53 Sunny 64 17.8 55 12.8 73 73 WNW 10 17 29.50 999 10 16 0.00 0.00
8:53 am 08:53 Sunny 70 21.1 58 14.4 66 66 WNW 7 11 29.51 999 10 16 0.00 0.00
9:53 am 09:53 Sunny 74 23.3 58 14.4 57 57 Calm 29.50 999 10 16 0.00 0.00
10:53 am 10:53 Sunny 79 26.1 59 15 50 50 E 6 9 29.47 998 10 16 0.00 0.00
11:53 am 11:53 Sunny 85 29.4 53 11.7 33 33 VRB 3 6 29.44 997 10 16 0.00 0.00
12:53 pm 12:53 Sunny 91 32.8 54 12.2 28 28 VRB 6 9 29.41 996 10 16 0.00 0.00
1:53 pm 13:53 Sunny 94 34.4 52 11.1 24 24 SSE 9 15 29.37 995 10 16 0.00 0.00
2:53 pm 14:53 Sunny 97 36.1 50 10 20 20 SE 15 24 29.35 994 10 16 0.00 0.00
3:53 pm 15:53 Sunny 99 37.2 47 8.3 17 17 E 18 30 29.32 993 10 16 0.00 0.00
4:53 pm 16:53 Sunny 98 36.7 45 7.2 16 16 E 28 44 29.29 992 10 16 0.00 0.00
5:53 pm 17:53 Sunny 97 36.1 43 6.1 16 16 E 29 46 29.27 991 10 16 0.00 0.00
6:53 pm 18:53 Sunny 92 33.3 47 8.3 21 21 E 28 44 29.26 991 9 14 0.00 0.00
7:53 pm 19:53 Sunny 88 31.1 50 10 27 27 ENE 16 26 29.28 992 10 16 0.00 0.00
8:14 pm 20:14 Hazy 79 26 55 13 45 45 NNW 29 46 29.23 990 4 6 0.00 0.00
8:25 pm 20:25 Hazy 76 24.4 54 12.2 47 47 NNW 26 43 29.28 991 5 8 0.00 0.00
8:53 pm 20:53 Clear 73 22.8 51 10.6 46 46 NW 31 50 29.42 996 10 16 0.00 0.00
9:53 pm 21:53 Clear 71 21.7 42 5.6 35 35 NW 32 52 29.48 998 10 16 0.00 0.00
10:53 pm 22:53 Mostly Cloudy 69 20.6 40 4.4 35 35 NW 32 52 29.51 999 10 16 0.00 0.00
11:53 pm 23:53 Cloudy 67 19.4 38 3.3 35 35 NW 26 43 29.55 1001 10 16 0.00 0.00

Powered by AerisWeather